| time (UTC) | temp C | wind direction | speed KPH | gust KPH | rain 1hr cm | rain 24hr cm | rain mn cm | humidity % | barometer mb |
| 20260505170504 | 26 | 171 | 8.0 | 14.5 | 0.00 | 0.00 | 0.00 | 81 | 1008.9 |
| 20260505170008 | 26 | 223 | 4.8 | 11.3 | 0.00 | 0.00 | 0.00 | 81 | 1008.8 |
| 20260505165503 | 25 | 165 | 8.0 | 11.3 | 0.00 | 0.00 | 0.00 | 81 | 1008.9 |
| 20260505165014 | 26 | 131 | 3.2 | 11.3 | 0.00 | 0.00 | 0.00 | 81 | 1008.9 |
| 20260505164504 | 26 | 200 | 1.6 | 11.3 | 0.00 | 0.00 | 0.00 | 81 | 1009.0 |
| 20260505164004 | 26 | 227 | 8.0 | 11.3 | 0.00 | 0.00 | 0.00 | 81 | 1009.0 |
| 20260505163004 | 26 | 188 | 1.6 | 12.9 | 0.00 | 0.00 | 0.00 | 81 | 1009.0 |
| 20260505162504 | 26 | 201 | 3.2 | 11.3 | 0.00 | 0.00 | 0.00 | 81 | 1009.0 |
| 20260505162003 | 25 | 196 | 4.8 | 8.0 | 0.00 | 0.00 | 0.00 | 81 | 1008.9 |
| 20260505161503 | 25 | 182 | 3.2 | 8.0 | 0.00 | 0.00 | 0.00 | 81 | 1008.9 |
| 20260505161004 | 25 | 213 | 3.2 | 12.9 | 0.00 | 0.00 | 0.00 | 81 | 1008.9 |
| 20260505160504 | 25 | 171 | 9.7 | 14.5 | 0.00 | 0.00 | 0.00 | 82 | 1008.8 |
| 20260505153004 | 25 | 215 | 3.2 | 14.5 | 0.00 | 0.00 | 0.00 | 82 | 1008.6 |
| 20260505152504 | 25 | 180 | 6.4 | 14.5 | 0.00 | 0.00 | 0.00 | 82 | 1008.7 |
| 20260505152003 | 25 | 213 | 3.2 | 11.3 | 0.00 | 0.00 | 0.00 | 82 | 1008.7 |
| 20260505151004 | 25 | 152 | 4.8 | 11.3 | 0.00 | 0.00 | 0.00 | 82 | 1008.6 |
| 20260505140506 | 24 | 220 | 4.8 | 9.7 | 0.00 | 0.00 | 0.00 | 84 | 1008.4 |
| 20260505125005 | 23 | 151 | 4.8 | 11.3 | 0.00 | 0.00 | 0.00 | 87 | 1007.8 |
| 20260505124005 | 22 | 165 | 3.2 | 8.0 | 0.00 | 0.00 | 0.00 | 87 | 1007.8 |
| 20260505123504 | 22 | 178 | 1.6 | 8.0 | 0.00 | 0.00 | 0.00 | 87 | 1008.3 |
| 20260505123008 | 22 | 184 | 0.0 | 8.0 | 0.00 | 0.00 | 0.00 | 87 | 1008.1 |
| 20260505122504 | 22 | 166 | 6.4 | 9.7 | 0.00 | 0.00 | 0.00 | 87 | 1008.1 |
| 20260505122005 | 22 | 191 | 1.6 | 6.4 | 0.00 | 0.00 | 0.00 | 87 | 1008.2 |
| 20260505121507 | 22 | 188 | 0.0 | 6.4 | 0.00 | 0.00 | 0.00 | 87 | 1008.1 |
| 20260505121005 | 22 | 188 | 3.2 | 8.0 | 0.00 | 0.00 | 0.00 | 87 | 1008.1 |
| 20260505120506 | 22 | 188 | 3.2 | 8.0 | 0.00 | 0.00 | 0.00 | 88 | 1008.1 |
| 20260505120007 | 22 | 178 | 0.0 | 8.0 | 0.00 | 0.00 | 0.00 | 88 | 1007.9 |
| 20260505115504 | 22 | 159 | 1.6 | 9.7 | 0.00 | 0.00 | 0.00 | 88 | 1007.7 |
| 20260505115005 | 22 | 150 | 6.4 | 8.0 | 0.00 | 0.00 | 0.00 | 87 | 1007.6 |
| 20260505114506 | 22 | 196 | 0.0 | 11.3 | 0.00 | 0.00 | 0.00 | 87 | 1007.7 |
| 20260505114004 | 22 | 185 | 6.4 | 11.3 | 0.00 | 0.00 | 0.00 | 87 | 1007.9 |
| 20260505113505 | 22 | 175 | 1.6 | 12.9 | 0.00 | 0.00 | 0.00 | 87 | 1007.9 |
| 20260505112005 | 22 | 219 | 8.0 | 11.3 | 0.00 | 0.00 | 0.00 | 87 | 1007.9 |
| 20260505111504 | 22 | 165 | 6.4 | 11.3 | 0.00 | 0.00 | 0.00 | 87 | 1007.8 |
| 20260505111009 | 22 | 192 | 4.8 | 8.0 | 0.00 | 0.00 | 0.00 | 87 | 1007.7 |
| 20260505110506 | 22 | 190 | 0.0 | 8.0 | 0.00 | 0.00 | 0.00 | 87 | 1007.7 |
| 20260505102004 | 21 | 169 | 1.6 | 9.7 | 0.00 | 0.00 | 0.00 | 87 | 1007.8 |
| 20260505101504 | 21 | 168 | 1.6 | 9.7 | 0.00 | 0.00 | 0.00 | 87 | 1007.8 |
| 20260505100505 | 21 | 130 | 1.6 | 14.5 | 0.00 | 0.00 | 0.00 | 87 | 1008.0 |
| 20260505095504 | 21 | 169 | 1.6 | 6.4 | 0.00 | 0.00 | 0.00 | 87 | 1008.0 |
| 20260505095005 | 21 | 170 | 0.0 | 6.4 | 0.00 | 0.00 | 0.00 | 87 | 1007.9 |
| 20260505093504 | 21 | 169 | 0.0 | 8.0 | 0.00 | 0.00 | 0.00 | 87 | 1008.0 |
| 20260505093005 | 21 | 167 | 1.6 | 11.3 | 0.00 | 0.00 | 0.00 | 87 | 1008.0 |
| 20260505092005 | 21 | 167 | 4.8 | 9.7 | 0.00 | 0.00 | 0.00 | 87 | 1008.2 |
| 20260505091504 | 21 | 168 | 0.0 | 9.7 | 0.00 | 0.00 | 0.00 | 87 | 1008.2 |
| 20260505091010 | 21 | 165 | 1.6 | 9.7 | 0.00 | 0.00 | 0.00 | 87 | 1008.2 |
| 20260505090007 | 21 | 165 | 1.6 | 8.0 | 0.00 | 0.00 | 0.00 | 86 | 1008.1 |
| 20260505085504 | 21 | 165 | 3.2 | 9.7 | 0.00 | 0.00 | 0.00 | 86 | 1008.1 |
| 20260505085005 | 21 | 165 | 3.2 | 9.7 | 0.00 | 0.00 | 0.00 | 86 | 1008.2 |
| 20260505084505 | 21 | 154 | 0.0 | 9.7 | 0.00 | 0.00 | 0.00 | 86 | 1008.2 |
| 20260505084004 | 21 | 197 | 1.6 | 11.3 | 0.00 | 0.00 | 0.00 | 85 | 1008.2 |
| 20260505083504 | 21 | 198 | 0.0 | 11.3 | 0.00 | 0.00 | 0.00 | 85 | 1008.4 |
| 20260505083005 | 21 | 192 | 3.2 | 9.7 | 0.00 | 0.00 | 0.00 | 85 | 1008.3 |
| 20260505082505 | 21 | 187 | 1.6 | 9.7 | 0.00 | 0.00 | 0.00 | 85 | 1008.4 |
| 20260505082005 | 21 | 172 | 3.2 | 9.7 | 0.00 | 0.00 | 0.00 | 85 | 1008.5 |
| 20260505081505 | 21 | 194 | 4.8 | 8.0 | 0.00 | 0.00 | 0.00 | 85 | 1008.4 |
| 20260505081005 | 21 | 167 | 1.6 | 8.0 | 0.00 | 0.00 | 0.00 | 85 | 1008.6 |
| 20260505080507 | 21 | 173 | 3.2 | 9.7 | 0.00 | 0.00 | 0.00 | 85 | 1008.6 |
| 20260505080007 | 21 | 163 | 6.4 | 9.7 | 0.00 | 0.00 | 0.00 | 85 | 1008.5 |
| 20260505075506 | 21 | 225 | 3.2 | 12.9 | 0.00 | 0.00 | 0.00 | 85 | 1008.5 |
| 20260505075005 | 21 | 200 | 3.2 | 12.9 | 0.00 | 0.00 | 0.00 | 84 | 1008.5 |
| 20260505074509 | 21 | 180 | 3.2 | 8.0 | 0.00 | 0.00 | 0.00 | 84 | 1008.5 |
| 20260505073504 | 21 | 164 | 6.4 | 11.3 | 0.00 | 0.00 | 0.00 | 84 | 1008.6 |
| 20260505073005 | 21 | 192 | 1.6 | 9.7 | 0.00 | 0.00 | 0.00 | 84 | 1008.6 |
| 20260505072004 | 21 | 194 | 6.4 | 11.3 | 0.00 | 0.00 | 0.00 | 84 | 1008.9 |
| 20260505071504 | 21 | 136 | 1.6 | 12.9 | 0.00 | 0.00 | 0.00 | 83 | 1008.9 |
| 20260505071005 | 21 | 173 | 0.0 | 14.5 | 0.00 | 0.00 | 0.00 | 83 | 1008.9 |
| 20260505070508 | 21 | 185 | 1.6 | 14.5 | 0.00 | 0.00 | 0.00 | 83 | 1009.0 |
| 20260505070002 | 21 | 188 | 1.6 | 6.4 | 0.00 | 0.00 | 0.00 | 83 | 1008.9 |
| 20260505065504 | 21 | 155 | 1.6 | 8.0 | 0.00 | 0.00 | 0.00 | 83 | 1009.0 |
| 20260505065005 | 21 | 155 | 1.6 | 8.0 | 0.00 | 0.00 | 0.00 | 83 | 1009.2 |
| 20260505064004 | 21 | 175 | 1.6 | 14.5 | 0.00 | 0.00 | 0.00 | 82 | 1009.3 |
| 20260505063504 | 21 | 152 | 1.6 | 9.7 | 0.00 | 0.00 | 0.00 | 82 | 1009.3 |
| 20260505063008 | 21 | 175 | 6.4 | 9.7 | 0.00 | 0.00 | 0.00 | 82 | 1009.6 |
| 20260505062505 | 21 | 107 | 3.2 | 14.5 | 0.00 | 0.00 | 0.00 | 82 | 1009.5 |
| 20260505061504 | 21 | 218 | 1.6 | 16.1 | 0.00 | 0.00 | 0.00 | 82 | 1009.7 |
| 20260505061005 | 21 | 167 | 4.8 | 11.3 | 0.00 | 0.00 | 0.00 | 82 | 1009.7 |
| 20260505060504 | 21 | 165 | 6.4 | 11.3 | 0.00 | 0.00 | 0.00 | 82 | 1009.7 |
| 20260505060013 | 21 | 180 | 4.8 | 9.7 | 0.00 | 0.00 | 0.00 | 82 | 1009.5 |
| 20260505055503 | 21 | 150 | 3.2 | 9.7 | 0.00 | 0.00 | 0.00 | 81 | 1009.6 |
| 20260505055004 | 21 | 185 | 1.6 | 8.0 | 0.00 | 0.00 | 0.00 | 81 | 1009.6 |
| 20260505054005 | 21 | 171 | 1.6 | 9.7 | 0.00 | 0.00 | 0.00 | 81 | 1009.8 |
| 20260505053504 | 21 | 169 | 1.6 | 6.4 | 0.00 | 0.00 | 0.00 | 80 | 1009.8 |
| 20260505053006 | 21 | 171 | 0.0 | 11.3 | 0.00 | 0.00 | 0.00 | 80 | 1009.8 |
| 20260505052505 | 21 | 167 | 0.0 | 11.3 | 0.00 | 0.00 | 0.00 | 80 | 1009.9 |
| 20260505052006 | 22 | 214 | 4.8 | 14.5 | 0.00 | 0.00 | 0.00 | 80 | 1010.0 |
| 20260505051507 | 22 | 149 | 3.2 | 14.5 | 0.00 | 0.00 | 0.00 | 80 | 1010.1 |
| 20260505051009 | 22 | 180 | 3.2 | 11.3 | 0.00 | 0.00 | 0.00 | 79 | 1010.2 |
| 20260505050503 | 22 | 200 | 1.6 | 6.4 | 0.00 | 0.00 | 0.00 | 79 | 1010.2 |
| 20260505041505 | 22 | 129 | 3.2 | 17.7 | 0.00 | 0.00 | 0.00 | 77 | 1009.9 |
| 20260505041006 | 22 | 204 | 8.0 | 17.7 | 0.00 | 0.00 | 0.00 | 77 | 1010.0 |
| 20260505040506 | 22 | 124 | 1.6 | 14.5 | 0.00 | 0.00 | 0.00 | 77 | 1009.9 |
| 20260505035505 | 22 | 178 | 8.0 | 11.3 | 0.00 | 0.00 | 0.00 | 77 | 1010.2 |
| 20260505035009 | 22 | 131 | 1.6 | 14.5 | 0.00 | 0.00 | 0.00 | 76 | 1010.1 |
| 20260505034005 | 22 | 165 | 3.2 | 16.1 | 0.00 | 0.00 | 0.00 | 76 | 1010.1 |
| 20260505033504 | 22 | 150 | 4.8 | 11.3 | 0.00 | 0.00 | 0.00 | 76 | 1010.2 |
| 20260505033005 | 22 | 117 | 6.4 | 19.3 | 0.00 | 0.00 | 0.00 | 76 | 1010.5 |
| 20260505032506 | 22 | 142 | 1.6 | 19.3 | 0.00 | 0.00 | 0.00 | 76 | 1010.4 |
| 20260505032005 | 22 | 113 | 6.4 | 14.5 | 0.00 | 0.00 | 0.00 | 76 | 1010.4 |
| 20260505031505 | 22 | 180 | 8.0 | 14.5 | 0.00 | 0.00 | 0.00 | 76 | 1010.4 |
| 20260505031005 | 23 | 176 | 6.4 | 17.7 | 0.00 | 0.00 | 0.00 | 75 | 1010.3 |
| 20260505030506 | 23 | 136 | 6.4 | 17.7 | 0.00 | 0.00 | 0.00 | 75 | 1010.4 |
| 20260505030007 | 23 | 160 | 11.3 | 14.5 | 0.00 | 0.00 | 0.00 | 75 | 1010.3 |
| 20260505025505 | 23 | 164 | 1.6 | 16.1 | 0.00 | 0.00 | 0.00 | 75 | 1010.2 |
| 20260505025006 | 23 | 229 | 9.7 | 22.5 | 0.00 | 0.00 | 0.00 | 75 | 1010.1 |
| 20260505024508 | 23 | 173 | 16.1 | 20.9 | 0.00 | 0.00 | 0.00 | 75 | 1010.1 |
| 20260505024005 | 23 | 209 | 3.2 | 16.1 | 0.00 | 0.00 | 0.00 | 75 | 1010.1 |
| 20260505023505 | 23 | 194 | 3.2 | 14.5 | 0.00 | 0.00 | 0.00 | 75 | 1010.2 |
| 20260505023006 | 23 | 92 | 3.2 | 14.5 | 0.00 | 0.00 | 0.00 | 75 | 1010.1 |
| 20260505022506 | 23 | 162 | 12.9 | 17.7 | 0.00 | 0.00 | 0.00 | 74 | 1010.2 |
| 20260505022002 | 23 | 177 | 6.4 | 17.7 | 0.00 | 0.00 | 0.00 | 74 | 1010.2 |
| 20260505021505 | 23 | 216 | 4.8 | 14.5 | 0.00 | 0.00 | 0.00 | 74 | 1010.1 |
| 20260505021006 | 23 | 139 | 6.4 | 14.5 | 0.00 | 0.00 | 0.00 | 74 | 1010.1 |
| 20260505020007 | 23 | 185 | 6.4 | 19.3 | 0.00 | 0.00 | 0.00 | 74 | 1009.8 |
| 20260505015506 | 23 | 122 | 6.4 | 19.3 | 0.00 | 0.00 | 0.00 | 74 | 1009.6 |
| 20260505015008 | 23 | 134 | 1.6 | 11.3 | 0.00 | 0.00 | 0.00 | 74 | 1009.7 |
| 20260505014506 | 23 | 157 | 3.2 | 17.7 | 0.00 | 0.00 | 0.00 | 74 | 1009.8 |
| 20260505013507 | 23 | 146 | 3.2 | 16.1 | 0.00 | 0.00 | 0.00 | 74 | 1009.5 |
| 20260505013006 | 23 | 131 | 3.2 | 16.1 | 0.00 | 0.00 | 0.00 | 73 | 1009.6 |
| 20260505012505 | 23 | 153 | 4.8 | 16.1 | 0.00 | 0.00 | 0.00 | 73 | 1009.6 |
| 20260505012005 | 23 | 128 | 8.0 | 16.1 | 0.00 | 0.00 | 0.00 | 73 | 1009.4 |
| 20260505011005 | 23 | 151 | 6.4 | 14.5 | 0.00 | 0.00 | 0.00 | 73 | 1009.6 |
| 20260505010504 | 23 | 147 | 1.6 | 14.5 | 0.00 | 0.00 | 0.00 | 73 | 1009.5 |
| 20260505010007 | 23 | 165 | 1.6 | 11.3 | 0.00 | 0.00 | 0.00 | 72 | 1009.5 |
| 20260505005504 | 23 | 150 | 1.6 | 8.0 | 0.00 | 0.00 | 0.00 | 72 | 1009.6 |
| 20260505005006 | 24 | 149 | 4.8 | 14.5 | 0.00 | 0.00 | 0.00 | 71 | 1009.5 |
| 20260505004504 | 24 | 154 | 1.6 | 16.1 | 0.00 | 0.00 | 0.00 | 71 | 1009.4 |
| 20260505003504 | 24 | 137 | 0.0 | 9.7 | 0.00 | 0.00 | 0.00 | 70 | 1009.4 |
| 20260505003005 | 24 | 148 | 4.8 | 12.9 | 0.00 | 0.00 | 0.00 | 70 | 1009.4 |
| 20260505002504 | 24 | 143 | 1.6 | 17.7 | 0.00 | 0.00 | 0.00 | 70 | 1009.4 |
| 20260505002004 | 25 | 135 | 3.2 | 17.7 | 0.00 | 0.00 | 0.00 | 70 | 1009.5 |
| 20260505001504 | 25 | 172 | 9.7 | 16.1 | 0.00 | 0.00 | 0.00 | 70 | 1009.4 |
| 20260505001005 | 25 | 117 | 6.4 | 14.5 | 0.00 | 0.00 | 0.00 | 70 | 1009.6 |
| 20260505000504 | 25 | 121 | 4.8 | 19.3 | 0.00 | 0.00 | 0.00 | 69 | 1009.5 |
| 20260504235504 | 25 | 178 | 8.0 | 19.3 | 0.00 | 0.00 | 0.00 | 68 | 1009.7 |
| 20260504234504 | 25 | 92 | 1.6 | 19.3 | 0.00 | 0.00 | 0.00 | 67 | 1009.5 |
| 20260504234004 | 25 | 158 | 4.8 | 17.7 | 0.00 | 0.00 | 0.00 | 67 | 1009.7 |
| 20260504233507 | 25 | 144 | 6.4 | 17.7 | 0.00 | 0.00 | 0.00 | 67 | 1009.7 |
| 20260504233005 | 25 | 185 | 3.2 | 19.3 | 0.00 | 0.00 | 0.00 | 67 | 1009.7 |
| 20260504232505 | 26 | 140 | 14.5 | 19.3 | 0.00 | 0.00 | 0.00 | 66 | 1009.6 |
| 20260504232006 | 26 | 123 | 6.4 | 14.5 | 0.00 | 0.00 | 0.00 | 65 | 1009.8 |
| 20260504231504 | 26 | 139 | 1.6 | 16.1 | 0.00 | 0.00 | 0.00 | 65 | 1009.7 |
| 20260504231005 | 26 | 178 | 3.2 | 16.1 | 0.00 | 0.00 | 0.00 | 64 | 1009.8 |
| 20260504230505 | 26 | 108 | 3.2 | 14.5 | 0.00 | 0.00 | 0.00 | 63 | 1009.8 |
| 20260504230007 | 26 | 175 | 3.2 | 14.5 | 0.00 | 0.00 | 0.00 | 62 | 1010.0 |
| 20260504225005 | 26 | 267 | 1.6 | 19.3 | 0.00 | 0.00 | 0.00 | 62 | 1009.8 |
| 20260504224504 | 26 | 174 | 4.8 | 14.5 | 0.00 | 0.00 | 0.00 | 61 | 1009.8 |
| 20260504224004 | 27 | 160 | 1.6 | 14.5 | 0.00 | 0.00 | 0.00 | 60 | 1010.0 |
| 20260504223005 | 27 | 159 | 9.7 | 14.5 | 0.00 | 0.00 | 0.00 | 59 | 1010.1 |
| 20260504222506 | 27 | 174 | 8.0 | 11.3 | 0.00 | 0.00 | 0.00 | 60 | 1010.1 |
| 20260504221504 | 27 | 175 | 4.8 | 12.9 | 0.00 | 0.00 | 0.00 | 59 | 1010.4 |
| 20260504220505 | 27 | 207 | 3.2 | 14.5 | 0.00 | 0.00 | 0.00 | 58 | 1010.4 |
| 20260504220007 | 27 | 163 | 9.7 | 19.3 | 0.00 | 0.00 | 0.00 | 58 | 1010.2 |
| 20260504215504 | 27 | 85 | 8.0 | 16.1 | 0.00 | 0.00 | 0.00 | 58 | 1010.4 |
| 20260504215005 | 27 | 147 | 0.0 | 12.9 | 0.00 | 0.00 | 0.00 | 58 | 1010.3 |
| 20260504214506 | 27 | 144 | 4.8 | 16.1 | 0.00 | 0.00 | 0.00 | 57 | 1010.7 |
| 20260504213504 | 28 | 184 | 8.0 | 9.7 | 0.00 | 0.00 | 0.00 | 57 | 1010.7 |
| 20260504212505 | 27 | 167 | 4.8 | 14.5 | 0.00 | 0.00 | 0.00 | 56 | 1010.7 |
| 20260504212004 | 27 | 133 | 3.2 | 17.7 | 0.00 | 0.00 | 0.00 | 57 | 1010.9 |
| 20260504211005 | 27 | 117 | 6.4 | 16.1 | 0.00 | 0.00 | 0.00 | 57 | 1011.2 |
| 20260504210007 | 27 | 175 | 12.9 | 14.5 | 0.00 | 0.00 | 0.00 | 57 | 1011.3 |
| 20260504205504 | 28 | 195 | 3.2 | 11.3 | 0.00 | 0.00 | 0.00 | 55 | 1011.3 |
| 20260504205006 | 28 | 171 | 3.2 | 9.7 | 0.00 | 0.00 | 0.00 | 54 | 1011.4 |
| 20260504204505 | 28 | 182 | 6.4 | 11.3 | 0.00 | 0.00 | 0.00 | 56 | 1011.6 |
| 20260504204006 | 28 | 112 | 1.6 | 17.7 | 0.00 | 0.00 | 0.00 | 56 | 1011.7 |
| 20260504203009 | 27 | 233 | 3.2 | 16.1 | 0.00 | 0.00 | 0.00 | 56 | 1011.7 |
| 20260504202004 | 27 | 100 | 1.6 | 12.9 | 0.00 | 0.00 | 0.00 | 57 | 1011.9 |
| 20260504201005 | 28 | 207 | 8.0 | 17.7 | 0.00 | 0.00 | 0.00 | 55 | 1012.0 |
| 20260504200504 | 28 | 169 | 0.0 | 11.3 | 0.00 | 0.00 | 0.00 | 57 | 1012.1 |
| 20260504195505 | 28 | 182 | 3.2 | 16.1 | 0.00 | 0.00 | 0.00 | 56 | 1012.3 |
| 20260504195008 | 27 | 199 | 4.8 | 8.0 | 0.00 | 0.00 | 0.00 | 54 | 1012.4 |
| 20260504194505 | 28 | 163 | 8.0 | 12.9 | 0.00 | 0.00 | 0.00 | 56 | 1012.4 |
| 20260504194007 | 28 | 263 | 4.8 | 17.7 | 0.00 | 0.00 | 0.00 | 54 | 1012.5 |
| 20260504193503 | 28 | 182 | 9.7 | 17.7 | 0.00 | 0.00 | 0.00 | 56 | 1012.6 |
| 20260504193004 | 27 | 236 | 6.4 | 12.9 | 0.00 | 0.00 | 0.00 | 56 | 1012.6 |
| 20260504192505 | 27 | 229 | 3.2 | 9.7 | 0.00 | 0.00 | 0.00 | 56 | 1012.7 |
| 20260504192004 | 27 | 122 | 6.4 | 12.9 | 0.00 | 0.00 | 0.00 | 55 | 1012.6 |
| 20260504191506 | 27 | 227 | 4.8 | 12.9 | 0.00 | 0.00 | 0.00 | 54 | 1012.8 |
| 20260504191004 | 27 | 211 | 4.8 | 14.5 | 0.00 | 0.00 | 0.00 | 55 | 1013.1 |
| 20260504190505 | 27 | 245 | 11.3 | 14.5 | 0.00 | 0.00 | 0.00 | 57 | 1013.1 |
| 20260504185503 | 27 | 215 | 8.0 | 19.3 | 0.00 | 0.00 | 0.00 | 55 | 1013.2 |
| 20260504185005 | 27 | 245 | 1.6 | 16.1 | 0.00 | 0.00 | 0.00 | 55 | 1013.2 |
| 20260504184004 | 27 | 171 | 6.4 | 11.3 | 0.00 | 0.00 | 0.00 | 57 | 1013.3 |
| 20260504183504 | 26 | 174 | 1.6 | 12.9 | 0.00 | 0.00 | 0.00 | 57 | 1013.3 |
| 20260504183008 | 26 | 166 | 9.7 | 17.7 | 0.00 | 0.00 | 0.00 | 57 | 1013.3 |
| 20260504182505 | 27 | 119 | 6.4 | 17.7 | 0.00 | 0.00 | 0.00 | 56 | 1013.5 |
| 20260504182004 | 27 | 224 | 6.4 | 17.7 | 0.00 | 0.00 | 0.00 | 57 | 1013.4 |
| 20260504181503 | 26 | 196 | 6.4 | 17.7 | 0.00 | 0.00 | 0.00 | 58 | 1013.6 |
| 20260504181005 | 26 | 182 | 3.2 | 16.1 | 0.00 | 0.00 | 0.00 | 57 | 1013.7 |
| 20260504180505 | 26 | 159 | 9.7 | 17.7 | 0.00 | 0.00 | 0.00 | 57 | 1013.8 |
| 20260504175004 | 27 | 130 | 12.9 | 17.7 | 0.00 | 0.00 | 0.00 | 56 | 1013.9 |
| 20260504174506 | 26 | 360 | 3.2 | 12.9 | 0.00 | 0.00 | 0.00 | 56 | 1013.9 |
| 20260504174003 | 26 | 177 | 8.0 | 14.5 | 0.00 | 0.00 | 0.00 | 58 | 1014.0 |
| 20260504173503 | 26 | 207 | 8.0 | 12.9 | 0.00 | 0.00 | 0.00 | 58 | 1014.1 |
| 20260504172505 | 26 | 132 | 3.2 | 19.3 | 0.00 | 0.00 | 0.00 | 59 | 1014.4 |
| 20260504172004 | 26 | 169 | 6.4 | 25.7 | 0.00 | 0.00 | 0.00 | 56 | 1014.4 |
| 20260504171004 | 26 | 182 | 0.0 | 14.5 | 0.00 | 0.00 | 0.00 | 57 | 1014.5 |